Total_Precipitation_Accumulation
0.10 0.15 0.42 0.58 0.61 0.53 0.44 0.37 0.35 0.35 0.35 0.32 0.30 0.28 0.25 0.24 0.23 0.23 0.24 0.26 0.28 0.35 0.43 0.46 0.51 0.63 0.60 0.43 0.29 0.20 0.16 0.13 0.12 0.12 0.12 0.15 0.19 0.21 0.17 0.16 0.18 0.25 0.32
0.11 0.19 0.42 0.62 0.72 0.66 0.57 0.47 0.39 0.35 0.34 0.36 0.37 0.36 0.32 0.28 0.28 0.30 0.33 0.35 0.37 0.42 0.46 0.50 0.54 0.58 0.54 0.41 0.24 0.13 0.09 0.07 0.06 0.04 0.03 0.05 0.11 0.16 0.13 0.11 0.14 0.24 0.30
0.14 0.23 0.43 0.63 0.78 0.76 0.69 0.60 0.51 0.46 0.42 0.43 0.45 0.45 0.44 0.39 0.37 0.38 0.40 0.43 0.45 0.45 0.47 0.53 0.51 0.48 0.44 0.35 0.23 0.14 0.09 0.07 0.05 0.03 0.04 0.06 0.13 0.17 0.15 0.15 0.20 0.27 0.30
0.19 0.28 0.43 0.64 0.83 0.84 0.79 0.70 0.64 0.66 0.59 0.55 0.54 0.55 0.55 0.48 0.46 0.47 0.47 0.47 0.48 0.45 0.46 0.44 0.36 0.33 0.26 0.22 0.20 0.16 0.12 0.08 0.05 0.04 0.06 0.08 0.14 0.24 0.25 0.24 0.27 0.30 0.31
0.32 0.39 0.56 0.72 0.87 0.93 0.85 0.83 0.78 0.81 0.78 0.72 0.66 0.65 0.67 0.63 0.56 0.53 0.49 0.48 0.43 0.42 0.39 0.36 0.27 0.21 0.17 0.15 0.14 0.15 0.11 0.08 0.05 0.05 0.05 0.08 0.13 0.27 0.26 0.24 0.24 0.25 0.30
0.45 0.52 0.71 0.85 0.96 1.00 0.91 0.88 0.88 0.89 0.90 0.87 0.75 0.73 0.75 0.76 0.68 0.56 0.50 0.45 0.39 0.36 0.34 0.29 0.24 0.18 0.15 0.15 0.13 0.13 0.11 0.07 0.05 0.04 0.06 0.08 0.11 0.23 0.23 0.21 0.21 0.23 0.26
0.66 0.73 0.86 1.04 1.19 1.22 1.13 1.05 0.98 0.94 0.94 0.95 0.87 0.80 0.81 0.84 0.82 0.65 0.51 0.41 0.35 0.32 0.29 0.25 0.21 0.20 0.17 0.16 0.17 0.13 0.10 0.07 0.05 0.05 0.07 0.09 0.14 0.24 0.23 0.21 0.21 0.22 0.23
0.87 0.93 1.06 1.26 1.33 1.41 1.32 1.20 1.15 1.09 1.00 0.98 0.97 0.93 0.89 0.90 0.90 0.73 0.53 0.43 0.39 0.33 0.29 0.27 0.24 0.20 0.19 0.17 0.17 0.14 0.10 0.06 0.04 0.04 0.05 0.07 0.13 0.23 0.25 0.23 0.22 0.22 0.21
1.15 1.24 1.28 1.36 1.45 1.58 1.42 1.23 1.21 1.20 1.14 1.08 1.05 1.01 0.92 0.91 0.86 0.71 0.53 0.46 0.43 0.37 0.31 0.29 0.28 0.25 0.22 0.20 0.18 0.15 0.11 0.07 0.04 0.03 0.04 0.06 0.11 0.20 0.25 0.27 0.27 0.27 0.25
1.44 1.54 1.51 1.48 1.54 1.67 1.59 1.35 1.20 1.13 1.12 1.15 1.10 0.97 0.79 0.74 0.78 0.70 0.49 0.44 0.43 0.38 0.33 0.31 0.29 0.28 0.25 0.20 0.18 0.15 0.12 0.10 0.06 0.05 0.06 0.07 0.11 0.18 0.22 0.26 0.27 0.29 0.29
1.77 1.79 1.77 1.67 1.58 1.65 1.67 1.44 1.34 1.24 1.19 1.18 1.15 0.93 0.79 0.79 0.75 0.65 0.45 0.35 0.39 0.37 0.33 0.32 0.34 0.32 0.28 0.22 0.18 0.13 0.11 0.12 0.09 0.07 0.07 0.07 0.13 0.19 0.24 0.26 0.25 0.25 0.25
1.87 1.92 1.96 1.82 1.75 1.75 1.73 1.60 1.55 1.42 1.32 1.26 1.17 1.05 0.94 0.85 0.81 0.68 0.54 0.37 0.36 0.36 0.35 0.35 0.35 0.38 0.32 0.25 0.20 0.17 0.14 0.12 0.12 0.09 0.07 0.08 0.16 0.22 0.26 0.26 0.24 0.24 0.23
2.06 2.11 2.16 2.00 1.95 1.89 1.82 1.65 1.56 1.44 1.39 1.37 1.33 1.16 1.09 1.01 0.89 0.84 0.72 0.58 0.48 0.37 0.38 0.36 0.38 0.35 0.30 0.27 0.26 0.21 0.18 0.17 0.15 0.10 0.07 0.10 0.18 0.25 0.31 0.33 0.30 0.30 0.31
2.29 2.38 2.34 2.24 2.16 2.06 1.96 1.73 1.50 1.39 1.32 1.29 1.29 1.27 1.21 1.13 0.97 0.84 0.76 0.64 0.55 0.44 0.40 0.38 0.34 0.31 0.29 0.32 0.32 0.27 0.23 0.19 0.15 0.13 0.09 0.09 0.13 0.24 0.31 0.34 0.34 0.38 0.44
2.56 2.57 2.58 2.47 2.29 2.11 2.04 1.91 1.59 1.36 1.21 1.21 1.23 1.23 1.20 1.09 0.94 0.84 0.78 0.75 0.65 0.52 0.47 0.44 0.39 0.35 0.33 0.33 0.33 0.27 0.25 0.23 0.20 0.18 0.15 0.13 0.11 0.17 0.29 0.34 0.37 0.41 0.45
2.74 2.83 2.85 2.68 2.47 2.14 1.96 1.92 1.74 1.48 1.29 1.24 1.19 1.16 1.19 1.13 0.99 0.88 0.78 0.78 0.74 0.67 0.62 0.58 0.51 0.48 0.44 0.41 0.37 0.32 0.30 0.28 0.27 0.28 0.25 0.20 0.15 0.14 0.21 0.34 0.47 0.55 0.58
2.83 3.01 3.04 2.94 2.74 2.34 2.02 1.91 1.80 1.61 1.47 1.38 1.19 1.11 1.12 1.17 1.12 1.01 0.87 0.81 0.78 0.77 0.77 0.75 0.69 0.66 0.57 0.49 0.42 0.40 0.35 0.31 0.27 0.27 0.26 0.24 0.21 0.17 0.16 0.27 0.44 0.55 0.60
2.87 3.01 3.07 3.05 2.93 2.62 2.23 2.04 1.90 1.70 1.59 1.52 1.39 1.26 1.15 1.16 1.20 1.15 0.96 0.86 0.82 0.82 0.82 0.79 0.74 0.70 0.61 0.55 0.47 0.43 0.39 0.34 0.30 0.28 0.26 0.23 0.22 0.20 0.17 0.19 0.29 0.42 0.51
2.68 2.92 3.17 3.10 2.98 2.84 2.57 2.34 2.17 1.94 1.77 1.65 1.48 1.35 1.31 1.27 1.26 1.26 1.03 0.88 0.86 0.83 0.77 0.80 0.78 0.73 0.64 0.57 0.53 0.49 0.45 0.40 0.34 0.31 0.27 0.23 0.23 0.22 0.19 0.18 0.19 0.24 0.34
2.46 2.74 2.96 3.23 3.12 3.12 3.04 2.75 2.48 2.26 2.01 1.81 1.59 1.41 1.37 1.34 1.29 1.32 1.19 0.99 0.97 0.94 0.80 0.73 0.75 0.80 0.78 0.70 0.65 0.59 0.54 0.49 0.43 0.37 0.32 0.27 0.23 0.21 0.20 0.19 0.18 0.18 0.23
2.20 2.49 2.64 2.89 3.07 3.10 3.01 2.71 2.41 2.22 2.14 2.01 1.77 1.58 1.51 1.43 1.32 1.29 1.28 1.14 1.02 1.00 0.94 0.81 0.77 0.78 0.84 0.90 0.89 0.75 0.62 0.56 0.49 0.42 0.37 0.31 0.26 0.24 0.23 0.24 0.25 0.25 0.26
1.92 2.11 2.40 2.48 2.77 2.80 2.71 2.65 2.50 2.43 2.35 2.26 2.09 1.82 1.63 1.57 1.45 1.31 1.25 1.20 1.09 1.03 1.08 1.08 0.98 0.91 0.87 0.92 1.00 0.97 0.81 0.69 0.54 0.42 0.40 0.38 0.33 0.31 0.29 0.28 0.28 0.30 0.32
1.61 1.91 2.05 2.16 2.39 2.64 2.68 2.77 2.85 2.80 2.54 2.28 2.13 2.04 1.87 1.74 1.63 1.46 1.33 1.30 1.25 1.12 1.07 1.14 1.18 1.14 1.12 1.12 1.11 1.23 1.11 0.83 0.63 0.48 0.39 0.38 0.37 0.37 0.35 0.35 0.34 0.35 0.37
1.24 1.62 1.95 2.13 2.26 2.46 2.75 2.72 2.61 2.47 2.28 2.03 2.02 2.09 2.08 1.93 1.79 1.63 1.52 1.43 1.39 1.31 1.23 1.24 1.24 1.29 1.34 1.32 1.29 1.22 1.14 0.98 0.92 0.71 0.47 0.39 0.38 0.35 0.36 0.37 0.35 0.34 0.36
1.02 1.32 1.64 1.90 2.19 2.39 2.52 2.54 2.56 2.37 2.19 2.15 2.06 2.04 1.97 1.87 1.79 1.69 1.62 1.60 1.54 1.49 1.45 1.49 1.46 1.43 1.44 1.45 1.41 1.35 1.32 1.18 1.06 1.00 0.75 0.54 0.51 0.45 0.40 0.37 0.37 0.38 0.41
0.87 1.05 1.36 1.62 1.77 2.02 2.27 2.32 2.33 2.31 2.29 2.25 2.04 1.94 1.94 1.93 1.85 1.73 1.70 1.70 1.71 1.67 1.60 1.58 1.60 1.63 1.61 1.57 1.56 1.46 1.40 1.35 1.20 1.19 1.07 0.81 0.74 0.64 0.56 0.51 0.48 0.47 0.49